Regional Weather Roundup
Issued by NWS

Home | Current Version | Previous Version | Text Only | Print | Product List | Glossary On
Versions: 1 2 3 4 5 6 7 8 9 10 11 12 13 14 15 16 17 18 19 20 21 22 23 24 25 26 27 28 29 30 31 32 33 34 35 36 37 38 39 40 41 42 43 44 45 46 47 48 49 50
000
ASUS45 KPSR 221610
RWRAZ

ARIZONA REGIONAL HOURLY WEATHER ROUNDUP
NATIONAL WEATHER SERVICE PHOENIX AZ
900 AM MST MON DEC 22 2014

NOTE: FAIR INDICATES FEW OR NO CLOUDS BELOW 12,000 FEET WITH NO
SIGNIFICANT WEATHER AND/OR OBSTRUCTIONS TO VISIBILITY.

AZZ001>003-036-221700-
NORTHWEST ARIZONA

CITY           SKY/WX    TMP DP  RH WIND       PRES   REMARKS
BULLHEAD CITY  SUNNY     46  45  93 CALM      30.07S
KINGMAN        SUNNY     43  37  79 S6        30.09S
$$

AZZ004>008-015-016-018-221700-
NORTH CENTRAL ARIZONA

CITY           SKY/WX    TMP DP  RH WIND       PRES   REMARKS
GRAND CANYON   SUNNY     42  34  73 NW6       30.08F
PRESCOTT       SUNNY     47  35  63 NW5       30.08R
FLAGSTAFF      SUNNY     45  31  58 VRB3      30.08R
PAYSON         SUNNY     43  36  75 CALM      30.04S
PAGE           SUNNY     42  33  70 CALM      29.97F
$$

AZZ009>014-017-221700-
NORTHEAST ARIZONA

CITY           SKY/WX    TMP DP  RH WIND       PRES   REMARKS
WINSLOW        SUNNY     38  34  85 CALM      30.03R
SAINT JOHNS    SUNNY     39  33  79 CALM      30.02S
WINDOW ROCK    SUNNY     34  29  82 CALM      30.00F
SHOW LOW       SUNNY     41  32  70 CALM      30.08S
$$

AZZ023-221700-
GREATER PHOENIX AREA

CITY           SKY/WX    TMP DP  RH WIND       PRES   REMARKS
PHOENIX        MOSUNNY   51  42  71 SE8       30.02R
BUCKEYE          N/A     45  45 100 CALM      30.04R
GLENDALE       MOSUNNY   48  45  87 CALM      30.04S
DEER VALLEY    SUNNY     49  41  74 CALM      30.02S
SCOTTSDALE     SUNNY     48  41  76 CALM      30.03S
MESA-FALCON    MOSUNNY   46  41  81 N6        30.02R
MESA-GATEWAY   MOSUNNY   45  39  81 SE5       30.05R
CHANDLER       MOSUNNY   46  43  87 CALM      30.04S
$$

AZZ027-028-221700-
SOUTHWEST MARICOPA COUNTY AND PINAL COUNTY

CITY           SKY/WX    TMP DP  RH WIND       PRES   REMARKS
CASA GRANDE    SUNNY     46  41  81 MISG      30.04R
$$

AZZ503-504-507>509-221700-
SOUTHEAST ARIZONA

CITY           SKY/WX    TMP DP  RH WIND       PRES   REMARKS
TUCSON         SUNNY     45  37  73 S5        30.07R
RYAN FIELD       N/A     43  43 100 NE3       30.08R
NOGALES        SUNNY     46  36  68 CALM      30.04F
DOUGLAS        SUNNY     45  34  65 CALM      30.04S
SAFFORD        SUNNY     42  36  79 CALM      30.02R
$$

AZZ020-021-025-026-031-221700-
SOUTHWEST ARIZONA

CITY           SKY/WX    TMP DP  RH WIND       PRES   REMARKS
YUMA           MOSUNNY  N/A N/A N/A W3        30.03R
$$

CAZ031-033-041-043-047-048-061-221700-
SOUTHERN CALIFORNIA

CITY           SKY/WX    TMP DP  RH WIND       PRES   REMARKS
DOWNTOWN L.A.  SUNNY     51  47  86 CALM      30.04R FOG
L.A. AIRPORT   MOSUNNY   55  50  83 CALM      30.05R FOG
SAN DIEGO      SUNNY     56  50  80 CALM      30.05S
BURBANK        SUNNY     54  45  71 CALM      30.04R
ONTARIO        SUNNY     52  46  80 NE3       30.05R
RIVERSIDE      SUNNY     52  46  80 CALM      30.05R
PALM SPRINGS   SUNNY     52  45  77 SW3       30.05S
EL CENTRO NAS  MOSUNNY   47  41  80 N3        30.04R
IMPERIAL       SUNNY     51  43  74 CALM      30.04R
BLYTHE         SUNNY     49  45  86 SW3       30.04S
NEEDLES        SUNNY     53  42  66 CALM      30.05R
$$

NVZ020-UTZ003-221700-
SOUTHERN NEVADA-UTAH

CITY           SKY/WX    TMP DP  RH WIND       PRES   REMARKS
LAS VEGAS      SUNNY     50  39  66 S7        30.03F
SALT LAKE CITY LGT RAIN  38  36  92 E8        30.00R WCI  32
$$

NMZ009-TXZ055-221700-
NEW MEXICO-WEST TEXAS

CITY           SKY/WX    TMP DP  RH WIND       PRES   REMARKS
ALBUQUERQUE    PTSUNNY   41  33  73 S6        29.91S
EL PASO        MOSUNNY   55  33  43 S9        29.90F
$$


........................KEY........................
SKY/WX - SKY CONDITION/WEATHER
TMP    - TEMPERATURE IN FAHRENHEIT
DP     - DEW POINT IN FAHRENHEIT
RH     - RELATIVE HUMIDITY IN PERCENT
WIND   - DIRECTION AND SPEED IN MILES PER HOUR (MPH)
VRB    - VARIABLE WIND DIRECTION
PRES   - MEAN SEA LEVEL PRESSURE IN INCHES OF MERCURY
         F - FALLING PRESSURE   R - RISING PRESSURE
         S - STEADY PRESSURE
VSB    - VISIBILITY IN MILES
HX     - HEAT INDEX IN FAHRENHEIT
WCI    - WIND CHILL INDEX IN FAHRENHEIT
TC     - TEMPERATURE IN CELSIUS WHICH IS ALSO KNOWN AS
         TEMPERATURE IN CENTIGRADE
AFB    - AIR FORCE BASE
         LUKE AFB IS LUKE AIR FORCE BASE
         DAVIS-MONTHAN IS DAVIS-MONTHAN AIR FORCE BASE
NAS    - NAVAL AIR STATION
         EL CENTRO NAS IS EL CENTRO NAVAL AIR STATION
N/A    - NOT AVAILABLE


USA.gov is the U.S. government's official web portal to all federal, state and local government web resources and services.